Wind_Speed
5 5 7 7 6 7 7 7 7 7 6 6 7 8 8 8 8 9 8 9 10 11 10 10 10 10 9 9 9 9 9 7 6 6 6 5 4 3 2 3 3 2 1
5 5 7 6 6 6 7 7 6 6 6 6 7 7 8 9 9 10 9 9 10 11 11 10 9 9 9 10 9 8 8 6 6 6 6 5 4 2 2 2 3 2 1
5 5 6 6 6 6 6 7 6 6 6 6 6 7 8 9 10 10 10 11 11 11 11 10 10 10 9 8 8 7 8 7 7 7 5 4 4 3 2 2 2 2 1
4 4 6 7 7 7 7 7 7 6 6 6 6 7 8 9 9 10 11 12 12 11 11 10 10 10 8 8 8 7 8 8 7 5 5 4 3 3 2 2 2 2 1
5 5 5 7 7 8 8 7 7 6 6 6 6 7 8 9 9 10 11 12 12 10 10 9 10 9 8 8 8 7 7 7 5 5 4 3 3 2 2 1 1 1 1
6 6 6 7 7 8 8 8 7 7 7 8 8 8 9 9 9 9 10 11 11 10 10 10 9 9 8 8 8 7 7 6 5 4 4 3 2 2 1 0 0 1 1
7 7 8 8 8 8 8 8 8 8 9 9 9 9 10 10 10 10 10 11 10 10 10 10 9 9 9 8 7 7 6 6 4 3 3 2 2 1 1 0 1 2 2
8 9 8 8 8 7 8 8 8 9 10 10 10 10 10 10 11 11 11 11 10 10 10 10 10 10 9 7 7 7 6 5 3 2 2 2 1 1 1 1 1 2 2
9 9 9 9 9 8 8 8 9 10 10 11 11 10 10 10 11 11 11 10 10 9 9 9 9 8 8 7 6 5 4 3 2 2 1 1 0 1 1 1 1 2 1
10 9 9 10 10 10 10 9 10 10 10 11 11 11 10 11 11 10 10 10 9 9 8 9 8 7 7 6 5 4 3 2 2 2 1 1 1 1 2 2 2 2 2
10 9 9 9 9 10 11 10 10 11 11 11 12 11 10 11 11 10 9 10 9 8 8 8 8 7 6 5 4 3 2 2 2 1 1 1 2 2 2 2 3 3 3
10 10 10 10 10 10 10 10 10 10 10 11 12 11 11 10 10 9 9 9 8 8 7 7 6 5 5 4 3 3 2 1 1 1 2 2 2 3 2 3 3 4 4
10 10 10 10 10 9 9 9 10 10 10 11 11 11 11 10 10 9 9 8 8 7 7 7 6 5 4 3 3 2 2 1 1 2 2 3 3 3 4 4 4 4 5
10 10 10 10 9 9 9 9 9 10 10 10 10 11 11 10 9 9 9 8 7 7 6 6 5 4 3 2 2 2 2 2 2 3 3 4 4 4 5 5 5 5 5
9 9 10 10 9 9 9 9 9 9 10 10 11 10 10 10 9 8 8 7 7 6 5 5 4 3 3 2 2 2 3 2 2 3 4 4 4 4 5 6 6 6 7
9 9 9 9 9 9 8 8 8 8 8 9 9 9 9 8 7 7 7 6 6 5 4 3 2 2 2 2 2 2 2 3 3 3 4 4 5 6 6 7 7 7 7
10 9 9 9 9 9 8 7 7 7 7 8 8 8 8 8 7 6 6 6 5 4 3 3 3 2 2 2 2 2 3 3 3 4 4 5 6 7 7 8 8 7 8
10 9 9 9 8 8 7 7 6 6 6 7 7 7 7 6 6 5 5 4 4 3 3 3 3 3 2 2 2 2 3 3 3 4 5 6 6 7 7 8 8 8 9
9 9 9 8 8 7 7 6 6 6 6 6 6 6 6 5 5 4 4 4 3 2 2 1 1 1 2 2 2 3 3 3 4 4 6 7 7 7 8 8 8 9 10
8 8 8 8 7 7 7 7 7 7 7 6 5 5 4 4 4 3 3 3 2 1 1 1 1 1 1 2 2 3 3 4 5 6 7 8 8 8 8 8 9 10 11
8 8 8 8 7 7 7 6 6 6 6 5 5 4 3 3 3 2 2 2 2 2 1 1 0 1 2 2 3 3 3 4 5 7 8 8 8 8 8 9 10 11 11
7 7 7 7 7 7 7 6 5 5 5 4 4 3 2 2 2 2 2 2 2 2 1 1 1 2 2 2 3 4 4 5 6 7 7 8 8 9 10 10 11 11 11
6 6 6 6 7 7 6 5 4 4 3 3 3 2 2 1 1 1 1 1 2 2 2 2 2 2 3 3 3 4 5 6 7 8 9 9 9 10 11 12 12 12 12
5 4 4 4 5 5 5 4 4 3 2 2 2 1 1 1 0 0 0 1 2 3 3 3 3 4 4 4 5 6 6 7 8 8 10 11 11 12 13 13 13 13 13
3 3 3 3 3 3 3 3 2 2 1 1 1 1 0 1 0 1 1 2 3 3 4 4 5 5 5 6 6 7 7 8 9 9 10 11 12 13 14 14 14 14 14
1 1 1 1 1 2 2 1 1 0 0 1 1 1 2 2 1 2 3 3 4 4 5 6 6 6 7 7 8 9 9 9 10 10 10 11 12 13 15 16 15 14 15
Wind_Direction
67 69 76 80 89 95 96 94 99 97 94 90 89 87 86 89 99 109 111 118 123 125 125 127 131 138 145 147 143 144 143 143 151 155 159 160 164 169 177 174 163 153 135
77 89 90 90 95 94 95 99 100 98 97 96 94 93 92 95 103 112 111 117 120 125 130 129 130 136 144 143 140 142 137 141 151 155 155 154 158 161 165 163 157 156 149
88 91 96 93 99 98 95 92 92 95 97 101 101 99 100 104 107 109 112 116 121 123 127 130 131 134 136 139 141 139 145 140 138 142 144 153 163 164 161 143 151 157 179
103 99 96 98 101 96 96 93 90 89 96 102 107 106 106 108 111 116 118 120 124 122 123 125 123 124 125 130 137 138 141 138 140 135 137 140 148 146 136 118 156 179 188
110 111 103 97 99 93 96 96 96 96 101 108 114 114 113 112 114 121 119 119 119 116 118 117 117 120 124 125 124 125 130 132 136 134 133 135 138 136 115 114 177 213 210
115 104 101 97 96 94 91 90 90 90 100 106 111 118 121 120 121 120 119 121 122 118 116 115 115 118 119 121 121 125 133 135 129 124 127 131 135 134 137 98 250 248 256
107 99 94 89 92 95 93 90 88 89 96 103 112 117 121 123 123 121 122 120 122 121 117 114 114 118 119 120 119 122 129 125 123 116 114 119 129 140 110 354 300 284 267
99 99 94 89 92 92 93 89 88 93 97 97 109 117 121 120 121 123 120 120 120 121 118 120 119 121 122 120 118 121 124 121 120 113 109 102 112 103 37 354 345 305 266
95 97 95 88 89 93 93 88 88 94 98 99 106 112 116 120 120 120 120 119 121 124 125 125 124 126 124 121 119 119 122 118 112 100 87 75 70 351 334 332 336 338 342
90 93 93 92 90 92 90 88 89 96 100 102 105 110 116 118 119 118 120 120 121 125 126 125 127 123 116 115 112 112 108 103 80 78 66 38 14 343 324 322 314 342 338
90 92 94 97 96 94 89 86 90 96 103 106 106 106 110 116 118 118 117 120 122 126 123 121 122 120 112 107 112 105 85 73 52 53 9 353 5 349 322 306 309 324 313
90 91 93 93 94 94 89 85 89 98 103 106 105 104 109 113 119 120 118 118 121 122 118 118 117 117 111 101 104 94 69 50 28 9 346 337 341 337 325 318 309 314 310
89 90 90 91 90 89 87 85 87 91 103 108 103 102 105 111 118 121 124 127 125 119 114 114 109 108 101 89 85 74 53 12 355 354 348 332 328 328 323 324 315 309 303
92 93 91 88 88 89 88 85 85 89 99 108 104 102 105 110 116 122 123 121 117 115 114 116 115 110 95 82 58 38 28 12 338 346 341 332 325 322 323 320 309 304 303
92 96 91 88 89 92 90 89 90 91 100 109 110 107 109 109 111 112 108 110 112 111 111 109 110 106 92 71 48 34 16 356 334 330 334 335 333 325 321 322 317 305 298
91 94 92 89 88 89 91 92 93 92 96 103 106 106 108 107 103 106 109 115 109 109 105 102 103 105 91 74 54 5 348 332 320 329 334 333 328 323 320 321 319 310 297
90 93 93 91 89 87 87 90 91 94 98 100 106 104 103 102 102 102 109 114 110 111 104 99 83 76 69 37 21 356 327 316 311 330 333 333 328 324 324 326 325 314 302
88 91 92 90 90 89 86 86 90 100 105 102 107 106 99 97 96 92 90 99 100 105 101 85 75 56 40 29 5 349 335 317 317 330 333 330 329 329 327 324 321 318 311
88 91 90 90 92 90 86 86 88 96 102 102 109 108 98 93 93 87 80 84 94 107 111 100 85 36 33 21 353 342 336 333 331 333 334 333 330 325 327 329 328 324 322
89 92 90 91 93 91 91 91 86 91 96 98 106 109 104 90 80 73 69 64 59 73 107 130 80 33 2 353 345 347 344 342 339 339 336 335 335 331 331 330 329 323 321
90 93 89 91 95 94 95 96 94 94 97 101 104 108 108 98 78 63 33 19 30 26 44 65 22 342 333 333 336 343 339 336 334 331 330 331 330 329 330 328 327 327 324
89 94 95 95 97 99 100 100 100 100 98 92 87 89 95 94 82 55 21 5 5 5 351 330 315 311 313 314 321 325 324 327 328 328 328 327 325 325 326 326 327 326 322
86 95 93 100 101 101 102 104 101 100 102 94 80 77 78 87 54 41 35 354 337 332 336 325 309 308 315 312 319 321 318 321 324 325 323 321 319 319 323 322 320 321 317
81 93 95 99 107 107 108 105 96 93 92 87 83 77 86 33 32 176 148 315 304 308 309 315 317 312 314 320 322 318 315 317 322 324 323 321 319 318 319 317 317 316 312
71 79 84 91 113 123 118 110 92 83 82 70 51 44 6 340 308 254 260 281 292 297 299 303 306 310 312 311 311 314 314 313 315 314 318 321 320 318 316 316 315 315 312
41 36 39 49 111 157 166 181 170 75 307 289 305 317 319 310 306 287 273 281 291 294 295 298 301 307 309 311 313 316 315 312 313 315 316 321 321 320 318 318 314 314 315
Height
5864 5863 5862 5862 5862 5863 5863 5864 5864 5864 5865 5865 5865 5865 5866 5866 5865 5866 5866 5867 5868 5869 5869 5871 5873 5875 5876 5878 5880 5881 5882 5883 5885 5886 5887 5888 5888 5889 5889 5889 5890 5890 5890
5865 5864 5864 5864 5864 5864 5864 5865 5865 5865 5865 5866 5866 5867 5867 5867 5867 5868 5868 5868 5869 5870 5872 5873 5875 5877 5878 5879 5881 5882 5884 5885 5886 5887 5888 5888 5889 5889 5890 5890 5890 5890 5891
5866 5866 5865 5865 5865 5865 5865 5865 5866 5866 5866 5867 5867 5868 5868 5868 5868 5869 5870 5870 5871 5872 5873 5875 5876 5878 5879 5881 5882 5883 5884 5886 5887 5887 5888 5889 5889 5890 5890 5890 5890 5891 5891
5866 5866 5867 5866 5866 5866 5866 5866 5866 5866 5867 5867 5868 5869 5869 5870 5870 5871 5871 5872 5872 5874 5875 5877 5878 5879 5881 5882 5884 5885 5886 5887 5887 5888 5889 5889 5890 5891 5891 5891 5891 5891 5891
5866 5867 5868 5868 5867 5867 5867 5867 5867 5867 5867 5867 5868 5869 5870 5871 5872 5873 5873 5874 5875 5876 5877 5879 5880 5881 5882 5884 5885 5886 5887 5888 5888 5889 5889 5890 5890 5891 5891 5891 5891 5891 5891
5866 5868 5869 5869 5868 5868 5868 5868 5867 5867 5867 5867 5868 5869 5871 5872 5873 5874 5875 5876 5877 5878 5879 5880 5881 5883 5884 5885 5886 5887 5888 5889 5889 5890 5890 5891 5891 5891 5892 5892 5892 5891 5891
5868 5869 5870 5870 5869 5869 5869 5868 5868 5868 5868 5868 5868 5870 5872 5873 5874 5875 5876 5878 5879 5880 5881 5882 5883 5884 5885 5887 5888 5888 5889 5890 5890 5891 5891 5891 5892 5892 5892 5892 5891 5891 5891
5870 5871 5871 5871 5871 5870 5870 5870 5869 5869 5868 5868 5868 5871 5872 5873 5875 5876 5878 5879 5880 5882 5883 5884 5885 5886 5887 5888 5889 5889 5890 5891 5891 5891 5891 5892 5892 5892 5892 5892 5891 5890 5889
5872 5873 5873 5873 5872 5872 5872 5871 5871 5870 5870 5870 5870 5872 5873 5875 5877 5878 5880 5881 5882 5883 5884 5885 5886 5887 5888 5889 5890 5890 5891 5891 5891 5892 5892 5892 5892 5892 5892 5892 5891 5890 5890
5874 5874 5874 5875 5874 5874 5873 5873 5872 5871 5872 5872 5872 5874 5875 5877 5879 5880 5881 5882 5883 5884 5885 5886 5887 5888 5889 5890 5891 5891 5892 5892 5892 5892 5892 5892 5892 5892 5892 5892 5891 5891 5890
5876 5876 5876 5876 5876 5876 5876 5875 5875 5875 5874 5874 5875 5876 5878 5879 5880 5882 5883 5884 5885 5886 5887 5888 5889 5890 5891 5891 5892 5892 5892 5892 5893 5893 5893 5892 5892 5892 5892 5892 5891 5891 5890
5878 5878 5878 5878 5878 5878 5878 5878 5877 5878 5877 5877 5878 5880 5881 5881 5882 5883 5884 5885 5886 5887 5888 5889 5890 5891 5891 5892 5893 5893 5893 5893 5893 5893 5893 5892 5892 5892 5892 5891 5891 5890 5890
5880 5880 5880 5880 5880 5880 5880 5880 5880 5880 5880 5881 5881 5882 5883 5883 5884 5885 5886 5887 5888 5889 5889 5890 5891 5892 5892 5893 5893 5893 5893 5893 5893 5893 5893 5893 5892 5892 5891 5891 5890 5890 5889
5882 5882 5882 5882 5882 5882 5882 5882 5882 5882 5882 5883 5883 5884 5885 5885 5886 5887 5887 5888 5889 5890 5890 5891 5892 5892 5893 5893 5893 5893 5893 5893 5893 5893 5893 5892 5892 5891 5891 5890 5889 5889 5888
5883 5884 5884 5884 5884 5884 5884 5884 5884 5885 5885 5885 5885 5886 5886 5886 5887 5888 5889 5890 5890 5891 5892 5892 5893 5893 5893 5893 5893 5894 5893 5893 5893 5893 5892 5892 5891 5891 5890 5889 5888 5888 5887
5884 5885 5885 5885 5885 5885 5885 5886 5886 5886 5887 5887 5887 5888 5888 5889 5889 5889 5890 5891 5891 5892 5892 5893 5893 5893 5893 5894 5894 5894 5893 5893 5893 5892 5892 5891 5891 5890 5889 5888 5887 5886 5885
5886 5886 5886 5886 5887 5887 5887 5887 5888 5888 5888 5888 5889 5889 5890 5890 5891 5891 5891 5892 5892 5893 5893 5893 5894 5894 5894 5894 5894 5894 5893 5893 5892 5892 5892 5891 5890 5889 5888 5887 5886 5885 5884
5887 5887 5887 5887 5888 5888 5888 5889 5889 5889 5890 5890 5890 5891 5891 5891 5892 5892 5892 5893 5893 5893 5893 5894 5894 5894 5894 5894 5894 5893 5893 5893 5893 5892 5891 5890 5890 5888 5887 5886 5885 5884 5883
5889 5889 5889 5889 5889 5890 5890 5890 5890 5890 5891 5891 5891 5892 5892 5893 5893 5893 5893 5893 5893 5894 5894 5894 5894 5894 5894 5894 5894 5893 5893 5892 5892 5891 5891 5890 5889 5887 5886 5885 5883 5882 5881
5891 5890 5890 5890 5891 5891 5891 5891 5892 5892 5892 5892 5893 5893 5893 5893 5893 5894 5894 5894 5894 5894 5894 5894 5894 5894 5894 5894 5893 5893 5893 5892 5891 5891 5890 5889 5888 5886 5885 5884 5883 5881 5880
5892 5892 5892 5892 5892 5892 5892 5893 5893 5893 5893 5894 5894 5894 5894 5894 5894 5894 5894 5894 5894 5894 5894 5894 5894 5894 5894 5893 5893 5893 5892 5892 5891 5890 5889 5888 5887 5885 5884 5883 5881 5880 5878
5894 5894 5894 5893 5893 5893 5894 5894 5894 5894 5894 5894 5894 5895 5895 5894 5894 5894 5894 5894 5894 5894 5894 5894 5894 5894 5893 5893 5893 5892 5892 5892 5890 5889 5888 5887 5886 5884 5883 5882 5880 5879 5877
5895 5895 5895 5895 5894 5895 5895 5895 5895 5895 5895 5895 5895 5895 5895 5895 5894 5894 5894 5894 5894 5894 5894 5894 5893 5893 5893 5892 5892 5892 5891 5891 5890 5888 5887 5885 5884 5883 5882 5880 5879 5877 5875
5896 5896 5896 5895 5895 5895 5895 5895 5896 5896 5896 5895 5895 5895 5895 5894 5894 5894 5894 5894 5894 5894 5893 5893 5893 5892 5892 5892 5891 5890 5890 5889 5888 5887 5886 5884 5883 5881 5880 5878 5876 5875 5873
5896 5896 5896 5896 5896 5896 5896 5896 5896 5896 5895 5895 5895 5895 5894 5894 5894 5894 5893 5893 5893 5893 5893 5892 5892 5891 5891 5890 5890 5889 5888 5888 5886 5886 5884 5883 5881 5879 5877 5876 5874 5872 5870
5896 5896 5896 5896 5896 5896 5896 5896 5895 5895 5895 5895 5895 5894 5894 5893 5893 5893 5893 5893 5892 5892 5892 5891 5891 5890 5890 5889 5888 5888 5887 5886 5885 5883 5882 5881 5879 5877 5875 5873 5871 5869 5867